Fort Peck Lake Weather Center

Moon Phase Calendar



Fort Peck Lake Water Level
Online Cameras

 


      

Current Conditions in Jordan
1/19/2022 3:01:53 AM

-3°F
Feels Like -15
Clouds
Humidity
74%
Pressure
30.8"
Wind
10.2 mph (N)
Dew Point
-8°F
UV Index
0/10 (Low)
Visibility
6 mi

Hourly Forecast

Date & Time Wed, Jan 19
3:00 AM
Wed, Jan 19
4:00 AM
Wed, Jan 19
5:00 AM
Wed, Jan 19
6:00 AM
Wed, Jan 19
7:00 AM
Wed, Jan 19
8:00 AM
Wed, Jan 19
9:00 AM
Wed, Jan 19
10:00 AM
Wed, Jan 19
11:00 AM
Wed, Jan 19
12:00 PM
Wed, Jan 19
1:00 PM
Wed, Jan 19
2:00 PM
Wed, Jan 19
3:00 PM
Wed, Jan 19
4:00 PM
Wed, Jan 19
5:00 PM
Wed, Jan 19
6:00 PM
Wed, Jan 19
7:00 PM
Wed, Jan 19
8:00 PM
Wed, Jan 19
9:00 PM
Wed, Jan 19
10:00 PM
Wed, Jan 19
11:00 PM
Thu, Jan 20
12:00 AM
Thu, Jan 20
1:00 AM
Thu, Jan 20
2:00 AM
Thu, Jan 20
3:00 AM
Thu, Jan 20
4:00 AM
Thu, Jan 20
5:00 AM
Thu, Jan 20
6:00 AM
Thu, Jan 20
7:00 AM
Thu, Jan 20
8:00 AM
Thu, Jan 20
9:00 AM
Thu, Jan 20
10:00 AM
Thu, Jan 20
11:00 AM
Thu, Jan 20
12:00 PM
Thu, Jan 20
1:00 PM
Thu, Jan 20
2:00 PM
Thu, Jan 20
3:00 PM
Thu, Jan 20
4:00 PM
Thu, Jan 20
5:00 PM
Thu, Jan 20
6:00 PM
Thu, Jan 20
7:00 PM
Thu, Jan 20
8:00 PM
Thu, Jan 20
9:00 PM
Thu, Jan 20
10:00 PM
Thu, Jan 20
11:00 PM
Fri, Jan 21
12:00 AM
Fri, Jan 21
1:00 AM
Fri, Jan 21
2:00 AM
Condition
Clouds

Clouds

Clouds

Clear

Clear

Clear

Clear

Clear

Clear

Clear

Clear

Clear

Clear

Clear

Clear

Clear

Clear

Clear

Clear

Clear

Clear

Clear

Clear

Clear

Clear

Clear

Clear

Clear

Clear

Clear

Clear

Clear

Clouds

Clouds

Clouds

Clouds

Clouds

Clouds

Clouds

Clouds

Clouds

Clouds

Rain

Rain

Rain

Snow

Snow

Snow
Temperature -3°F-3°F-3°F-3°F-3°F-3°F-3°F-2°F1°F4°F6°F8°F9°F9°F8°F8°F7°F7°F7°F7°F7°F7°F8°F8°F8°F8°F9°F9°F10°F10°F13°F16°F20°F24°F26°F28°F27°F28°F29°F29°F31°F32°F36°F38°F35°F32°F31°F33°F
Feels Like -15°F-15°F-15°F-15°F-12°F-3°F-3°F-2°F-8°F-7°F-5°F-3°F-2°F-2°F-4°F-4°F-5°F-5°F-5°F-5°F-5°F-4°F-4°F-3°F-3°F-2°F-2°F-1°F-1°F-1°F2°F5°F8°F11°F14°F16°F15°F15°F16°F18°F21°F22°F26°F27°F24°F21°F20°F21°F
Cloudiness 14%14%13%9%7%5%4%4%3%1%0%0%0%0%0%0%0%0%0%0%0%0%0%0%0%1%2%0%0%1%1%3%12%100%100%82%86%89%91%100%100%100%100%100%100%100%100%100%
Visibility 6 mi6 mi6 mi6 mi6 mi6 mi6 mi6 mi6 mi6 mi6 mi6 mi6 mi6 mi6 mi6 mi6 mi6 mi6 mi6 mi6 mi6 mi6 mi6 mi6 mi6 mi6 mi6 mi6 mi6 mi6 mi6 mi6 mi6 mi6 mi6 mi6 mi6 mi6 mi6 mi6 mi6 mi6 mi6 mi3 mi0 mi0 mi6 mi
Precipitation 0%0%0%0%0%0%0%0%0%0%0%0%0%0%0%0%0%0%0%0%0%0%0%0%0%0%0%0%0%0%0%0%0%0%0%0%0%0%0%15%54%79%82%75%88%95%99%99%
Humidity 74%74%74%74%74%73%70%66%61%57%53%51%50%52%60%64%68%70%71%72%73%73%72%71%72%73%75%77%80%81%79%73%69%66%65%65%69%72%74%79%79%85%88%86%94%98%98%88%
Dew Point -8°F-8°F-8°F-8°F-9°F-14°F-14°F-14°F-13°F-11°F-10°F-9°F-8°F-7°F-5°F-4°F-3°F-2°F-2°F-2°F-2°F-1°F-1°F-1°F-1°F0°F1°F2°F3°F4°F6°F8°F11°F14°F16°F17°F18°F20°F21°F23°F25°F28°F32°F34°F33°F31°F31°F30°F
Pressure 30.8"30.8"30.8"30.83"30.86"30.86"30.86"30.83"30.83"30.8"30.74"30.71"30.68"30.68"30.65"30.65"30.65"30.65"30.62"30.62"30.59"30.56"30.56"30.53"30.5"30.47"30.45"30.42"30.39"30.36"30.33"30.27"30.24"30.15"30.09"30.03"30"29.97"29.91"29.88"29.83"29.8"29.77"29.74"29.77"29.83"29.85"29.88"
Wind Speed 10.2 mph8.8 mph7.2 mph5.5 mph3.9 mph2.3 mph1.6 mph2.6 mph4.2 mph5.3 mph5.8 mph5.9 mph6.4 mph7.1 mph7.3 mph7.6 mph8 mph8.6 mph8.4 mph7.8 mph7.6 mph7.2 mph7 mph6.9 mph6.6 mph6.1 mph6.3 mph6.2 mph6.4 mph7.2 mph7.3 mph8.7 mph11 mph13.6 mph14 mph15.5 mph15.8 mph16.8 mph17.2 mph14.1 mph14.1 mph13.8 mph15.7 mph21.6 mph20.3 mph17.4 mph17.5 mph20.8 mph
Wind
Direction
352°
N
356°
N

N

N
21°
NNE
39°
NE
88°
E
122°
ESE
137°
SE
148°
SSE
152°
SSE
152°
SSE
149°
SSE
143°
SE
138°
SE
138°
SE
143°
SE
149°
SSE
149°
SSE
150°
SSE
143°
SE
150°
SSE
151°
SSE
146°
SE
149°
SSE
158°
SSE
149°
SSE
148°
SSE
154°
SSE
147°
SSE
157°
SSE
165°
SSE
165°
SSE
177°
S
174°
S
174°
S
177°
S
181°
S
182°
S
189°
S
190°
S
205°
SSW
234°
SW
261°
W
276°
W
294°
WNW
301°
WNW
302°
WNW

Daily Forecast

Date High Low Precip. Humidity
Today
Jan 19

Clear
9 °F
-3 °F
0%
57%
Thursday
Jan 20

Snow
35 °F
7 °F
88%
66%
Friday
Jan 21

Snow
34 °F
18 °F
99%
77%
Saturday
Jan 22

Clouds
37 °F
20 °F
7%
80%
Sunday
Jan 23

Clouds
41 °F
29 °F
0%
69%
Monday
Jan 24

Snow
34 °F
7 °F
36%
81%
Tuesday
Jan 25

Clouds
23 °F
6 °F
0%
66%
Wednesday
Jan 26

Clouds
40 °F
22 °F
0%
60%
Thursday
Jan 27

Clear
35 °F
28 °F
0%
64%
Friday
Jan 28

Clouds
41 °F
30 °F
0%
44%
Saturday
Jan 29

Snow
29 °F
19 °F
100%
67%
Sunday
Jan 30

Snow
21 °F
15 °F
48%
83%
Monday
Jan 31

Clouds
34 °F
19 °F
0%
72%
Tuesday
Feb 1

Clouds
21 °F
5 °F
12%
70%
Wednesday
Feb 2

Snow
33 °F
10 °F
47%
81%
Thursday
Feb 3

Clouds
42 °F
21 °F
0%
63%

Temperature 8-14 Day Outlook



Precipitation 8-14 Day Outlook




Quick Links
Fort Peck Lake News
Fort Peck Lake Photos
Fort Peck Lake Videos




About Us
Contact Us
Site Map
Search Site
Advertise With Us
   
FortPeck.USLakes.info
THE FORT PECK LAKE WEBSITE

Copyright 2022, Lakes Online
Privacy    |    Legal